PST,Max TemperatureF,Mean TemperatureF,Min TemperatureF,Max Dew PointF,MeanDew PointF,Min DewpointF,Max Humidity, Mean Humidity, Min Humidity, Max Sea Level PressureIn, Mean Sea Level PressureIn, Min Sea Level PressureIn, Max VisibilityMiles, Mean VisibilityMiles, Min VisibilityMiles, Max Wind SpeedMPH, Mean Wind SpeedMPH, Max Gust SpeedMPH,PrecipitationIn, CloudCover, Events, WindDirDegrees
2012-2-1,52,47,41,50,45,40,96,84,71,30.39,30.28,30.04,10,8,2,8,5,,0.04,4,Rain,312
2012-2-2,54,47,39,45,40,36,100,82,63,30.38,30.17,29.99,10,10,8,8,5,,0.00,0,,31
2012-2-3,55,48,40,48,43,35,93,77,61,30.09,30.05,30.00,10,10,4,9,4,,0.00,3,,148
2012-2-4,60,49,38,41,37,35,96,68,40,30.13,30.08,30.04,10,10,10,9,5,,0.00,0,,115
2012-2-5,59,49,38,45,39,34,85,66,47,30.14,30.06,29.97,10,8,1,7,4,,0.00,0,,39
2012-2-6,69,57,45,44,37,32,80,54,27,29.94,29.78,29.65,10,10,10,8,5,,0.00,0,,97
2012-2-7,53,51,49,50,47,42,96,84,71,30.06,29.87,29.67,10,7,2,7,3,,0.22,8,Rain,135
2012-2-8,58,54,49,48,46,44,93,80,66,30.25,30.19,30.06,10,10,7,14,7,23,0.06,5,Rain,142
2012-2-9,58,53,47,48,45,40,93,77,61,30.26,30.19,30.07,10,10,8,12,7,31,0.13,1,Rain,134
2012-2-10,57,53,48,54,49,45,96,87,77,30.12,30.07,30.04,10,8,2,17,12,31,0.21,7,Rain,173
2012-2-11,51,45,39,46,44,38,100,87,74,30.22,30.15,30.11,10,9,6,15,7,22,0.00,5,,337
2012-2-12,49,42,35,46,41,33,93,82,71,30.16,29.95,29.78,10,8,4,27,8,36,0.14,6,Rain,137
2012-2-13,51,46,41,46,42,37,100,84,68,30.13,30.01,29.81,10,8,2,22,16,32,0.23,6,Rain,339
2012-2-14,49,42,35,43,38,33,100,86,71,30.23,30.15,30.11,10,10,8,13,5,30,0.03,6,Rain,104
2012-2-15,51,43,34,41,36,30,92,77,61,30.33,30.28,30.23,10,10,5,15,7,23,0.00,0,,358
2012-2-16,53,46,38,45,39,34,86,76,66,30.36,30.32,30.27,10,9,5,8,3,,T,6,,94
2012-2-17,53,50,46,52,47,43,93,88,83,30.30,30.27,30.24,10,7,1,13,5,,0.11,8,Rain,171
2012-2-18,49,43,36,43,38,32,96,81,65,30.37,30.32,30.28,10,8,1,16,7,24,0.24,4,Rain,332
2012-2-19,49,42,35,43,37,32,92,74,56,30.26,30.11,30.03,10,9,5,15,7,26,0.07,3,Rain,139
2012-2-20,51,48,45,50,48,43,100,93,86,30.31,30.17,30.01,10,6,1,21,12,27,0.05,8,Rain,154
2012-2-21,56,52,48,52,49,48,100,93,86,30.47,30.42,30.31,10,4,0,9,4,,0.00,8,Fog,333
2012-2-22,51,48,45,50,48,39,100,91,82,30.49,30.45,30.38,10,3,0,18,6,27,0.07,7,Fog-Rain,320
2012-2-23,52,47,42,45,41,36,93,80,66,30.40,30.30,30.23,10,7,2,24,13,32,0.00,2,,340
2012-2-24,52,44,35,46,40,35,100,83,66,30.27,30.16,30.06,10,7,2,20,8,38,0.20,5,Rain,223
2012-2-25,48,40,32,39,34,30,92,74,56,30.53,30.45,30.30,10,9,4,16,10,24,0.15,6,Rain,344
2012-2-26,46,39,32,37,32,28,92,75,58,30.38,30.14,30.02,10,10,10,21,9,28,0.00,4,,1
2012-2-27,48,42,35,38,32,26,85,67,49,30.04,30.00,29.95,10,10,10,25,16,36,0.00,1,,339
2012-2-28,46,40,33,43,38,32,100,85,70,30.06,29.91,29.72,10,9,2,47,17,58,0.52,7,Rain-Thunderstorm,164
2012-2-29,46,42,38,43,37,32,89,78,67,30.11,30.03,29.92,10,9,3,25,14,32,0.26,7,Rain,207